�N����,����,�~����,�C��,���x,�C��,����,���ϕ���,�ő�u�ԕ���,�ő厞����,���˗�,�I�_���x,�n�����x,�ő啗���N��,DTYPE
"23/12/29","00:10",0.0,3.7,93.0,1017.8,299.3,1.0,1.9,318.0,0.00,2.7,7.4,"00:09:34",1
"23/12/29","00:20",0.0,3.6,93.0,1017.5,301.0,1.2,2.2,319.9,0.00,2.6,7.5,"00:17:14",1
"23/12/29","00:30",0.0,3.5,93.3,1017.8,316.9,1.8,2.4,314.8,0.00,2.6,7.5,"00:21:44",1
"23/12/29","00:40",0.0,3.6,93.5,1018.0,310.9,1.7,2.0,323.9,0.00,2.7,7.2,"00:36:48",1
"23/12/29","00:50",0.0,3.6,93.6,1018.0,295.7,1.2,2.0,321.7,0.00,2.7,7.4,"00:48:48",1
"23/12/29","01:00",0.0,3.8,93.8,1017.8,314.3,1.5,2.0,317.1,0.00,2.9,7.3,"00:55:20",1
"23/12/29","01:10",0.0,4.0,93.8,1018.2,298.7,1.5,2.1,340.4,0.00,3.1,7.3,"01:01:24",1
"23/12/29","01:20",0.0,4.3,93.9,1017.8,286.0,1.8,2.5,307.5,0.00,3.4,7.3,"01:19:34",1
"23/12/29","01:30",0.0,4.6,93.9,1018.2,279.2,1.2,2.5,320.0,0.00,3.7,7.3,"01:20:54",1
"23/12/29","01:40",0.0,4.7,94.0,1018.2,291.8,1.2,2.1,313.2,0.00,3.9,7.3,"01:39:30",1
"23/12/29","01:50",0.0,4.7,94.0,1018.7,314.2,2.1,2.5,315.9,0.00,3.9,7.2,"01:48:12",1
"23/12/29","02:00",0.0,4.7,94.1,1018.7,287.4,1.0,2.4,309.8,0.00,3.9,7.2,"01:59:42",1
"23/12/29","02:10",0.0,4.7,94.1,1018.5,314.6,1.8,2.6,316.6,0.00,3.9,7.4,"02:00:08",1
"23/12/29","02:20",0.0,4.7,94.2,1018.5,309.9,1.7,2.8,316.6,0.00,3.9,7.2,"02:10:16",1
"23/12/29","02:30",0.0,4.7,94.2,1018.2,292.0,0.8,1.4,313.7,0.00,3.9,7.2,"02:26:52",1
"23/12/29","02:40",0.0,4.8,94.1,1018.7,312.8,1.6,2.2,322.0,0.00,4.0,7.2,"02:35:22",1
"23/12/29","02:50",0.0,4.6,94.1,1018.7,300.2,1.5,2.0,314.3,0.00,3.8,7.2,"02:48:02",1
"23/12/29","03:00",0.0,4.4,94.2,1018.2,300.4,1.7,2.4,322.4,0.00,3.6,7.2,"02:51:36",1
"23/12/29","03:10",0.0,4.3,94.3,1018.0,317.5,2.0,2.9,318.8,0.00,3.5,7.1,"03:01:52",1
"23/12/29","03:20",0.0,4.1,94.3,1018.2,281.6,1.5,2.5,322.0,0.00,3.3,7.2,"03:10:08",1
"23/12/29","03:30",0.0,4.2,94.4,1018.0,274.4,2.0,2.6,259.3,0.00,3.4,7.4,"03:21:52",1
"23/12/29","03:40",0.0,3.8,94.3,1017.8,306.4,1.6,2.5,327.2,0.00,3.0,7.2,"03:32:08",1
"23/12/29","03:50",0.0,3.3,94.5,1018.0,302.5,1.3,2.0,325.0,0.00,2.5,7.2,"03:49:04",1
"23/12/29","04:00",0.0,2.9,94.7,1017.8,307.9,1.2,1.8,291.1,0.00,2.2,7.2,"03:57:54",1
"23/12/29","04:10",0.0,2.8,94.9,1017.5,313.6,1.0,2.1,316.0,0.00,2.1,7.2,"04:09:36",1
"23/12/29","04:20",0.0,2.7,95.1,1017.5,316.7,1.5,2.2,316.1,0.00,2.0,7.2,"04:10:16",1
"23/12/29","04:30",0.0,2.6,95.2,1017.5,278.1,1.1,1.6,300.5,0.00,2.0,6.8,"04:29:04",1
"23/12/29","04:40",0.0,2.9,95.4,1017.8,308.9,1.7,2.7,322.9,0.00,2.3,7.1,"04:38:08",1
"23/12/29","04:50",0.0,3.3,95.5,1017.5,288.2,1.5,1.9,311.4,0.00,2.7,7.0,"04:49:44",1
"23/12/29","05:00",0.0,3.9,95.5,1018.0,287.8,2.0,2.9,310.0,0.00,3.3,7.0,"04:53:44",1
"23/12/29","05:10",0.0,4.0,95.6,1018.0,304.7,1.7,2.7,318.4,0.00,3.4,6.9,"05:09:40",1
"23/12/29","05:20",0.0,4.3,95.6,1017.8,315.1,1.7,2.4,316.3,0.00,3.7,7.1,"05:10:40",1
"23/12/29","05:30",0.0,4.3,95.7,1018.2,288.4,1.5,2.2,316.7,0.00,3.7,6.9,"05:20:16",1
"23/12/29","05:40",0.0,4.6,95.8,1018.2,281.1,1.8,2.6,259.4,0.00,4.0,7.0,"05:35:38",1
"23/12/29","05:50",0.0,4.8,95.8,1018.0,254.0,0.7,1.8,269.7,0.00,4.2,7.0,"05:40:16",1
"23/12/29","06:00",0.0,4.6,95.9,1018.5,292.8,1.2,1.8,268.3,0.00,4.0,6.9,"05:58:58",1
"23/12/29","06:10",0.0,4.5,96.0,1018.5,305.2,1.7,2.7,323.8,0.00,4.0,7.2,"06:03:28",1
"23/12/29","06:20",0.0,4.4,96.0,1018.2,307.2,1.3,2.1,333.7,0.00,3.9,7.1,"06:12:32",1
"23/12/29","06:30",0.0,4.2,96.1,1018.5,304.9,1.6,2.5,320.7,0.00,3.7,7.0,"06:27:22",1
"23/12/29","06:40",0.0,4.0,96.2,1018.5,297.9,1.5,2.6,313.4,0.00,3.5,7.0,"06:31:12",1
"23/12/29","06:50",0.0,3.9,96.4,1018.2,300.8,1.3,1.9,289.8,0.00,3.4,7.2,"06:46:00",1
"23/12/29","07:00",0.0,4.0,96.5,1019.0,315.3,2.0,2.5,322.2,0.00,3.5,6.8,"06:52:24",1
"23/12/29","07:10",0.0,4.3,96.5,1018.5,299.1,2.0,2.9,309.2,0.00,3.8,7.0,"07:05:20",1
"23/12/29","07:20",0.0,4.5,96.5,1019.0,295.3,1.5,2.6,308.4,0.00,4.0,7.0,"07:13:14",1
"23/12/29","07:30",0.0,4.5,96.5,1019.0,261.7,0.8,1.6,262.2,0.00,4.0,7.0,"07:28:46",1
"23/12/29","07:40",0.0,4.7,96.7,1019.2,292.1,1.0,1.9,318.1,0.00,4.3,6.9,"07:34:16",1
"23/12/29","07:50",0.0,4.9,96.7,1019.2,300.4,1.6,3.1,322.1,0.00,4.5,7.1,"07:48:04",1
"23/12/29","08:00",0.0,4.9,96.7,1019.4,301.8,1.8,2.4,318.8,0.00,4.5,7.1,"07:58:16",1
"23/12/29","08:10",0.0,5.1,96.7,1019.0,304.4,2.0,3.1,313.2,0.00,4.7,6.9,"08:06:40",1
"23/12/29","08:20",0.0,5.2,96.8,1019.2,302.1,2.0,3.1,315.5,0.00,4.8,6.9,"08:13:16",1
"23/12/29","08:30",0.0,5.7,96.8,1019.0,309.7,2.0,3.1,317.8,0.00,5.3,7.2,"08:22:48",1
"23/12/29","08:40",0.0,6.1,96.7,1019.4,278.3,1.1,1.8,266.8,0.01,5.7,7.1,"08:31:28",1
"23/12/29","08:50",0.0,6.5,96.6,1019.7,271.7,1.0,1.6,255.0,0.03,6.0,7.0,"08:42:08",1
"23/12/29","09:00",0.0,6.8,96.6,1019.4,271.5,1.0,2.0,264.0,0.04,6.3,7.0,"08:58:32",1
"23/12/29","09:10",0.0,7.0,96.5,1019.7,258.5,0.8,2.2,257.1,0.04,6.5,7.1,"09:06:00",1
"23/12/29","09:20",0.0,7.2,96.4,1019.9,262.4,0.3,1.1,307.7,0.05,6.7,7.0,"09:12:48",1
"23/12/29","09:30",0.0,7.4,96.3,1020.4,300.2,1.0,1.9,317.5,0.06,6.9,7.3,"09:21:44",1
"23/12/29","09:40",0.0,7.6,95.8,1020.1,313.2,0.6,1.3,267.8,0.07,7.0,7.0,"09:30:08",1
"23/12/29","09:50",0.0,7.8,95.4,1020.8,116.9,0.5,1.1,104.2,0.05,7.2,7.2,"09:44:08",1
"23/12/29","10:00",0.0,8.1,94.5,1020.8,255.2,0.7,1.4,272.3,0.06,7.3,7.2,"09:56:48",1
"23/12/29","10:10",0.0,8.6,94.5,1021.1,296.7,0.6,1.4,317.5,0.08,7.8,7.2,"10:09:12",1
"23/12/29","10:20",0.0,9.1,93.5,1021.1,281.1,0.8,1.6,310.2,0.09,8.1,7.3,"10:12:00",1
"23/12/29","10:30",0.0,9.2,92.1,1020.8,286.2,0.6,1.3,282.6,0.08,8.0,7.4,"10:20:40",1
"23/12/29","10:40",0.0,9.5,90.3,1020.8,37.8,0.6,1.8,321.4,0.11,8.0,7.5,"10:38:36",1
"23/12/29","10:50",0.0,10.0,87.9,1020.6,273.0,1.0,1.9,333.2,0.12,8.1,7.5,"10:45:40",1
"23/12/29","11:00",0.0,10.1,83.8,1020.6,269.8,1.5,3.3,248.2,0.14,7.5,7.4,"10:56:20",1
"23/12/29","11:10",0.0,10.5,77.2,1020.6,298.5,2.2,3.6,287.2,0.12,6.7,7.2,"11:08:06",1
"23/12/29","11:20",0.0,10.6,72.4,1020.4,284.8,2.5,4.5,254.3,0.12,5.9,7.7,"11:13:22",1
"23/12/29","11:30",0.0,10.6,69.6,1020.4,305.9,2.6,5.4,326.4,0.15,5.3,7.7,"11:25:46",1
"23/12/29","11:40",0.0,10.8,68.2,1019.9,289.4,2.3,3.4,317.5,0.14,5.2,7.6,"11:32:32",1
"23/12/29","11:50",0.0,10.8,66.5,1019.7,287.8,2.1,6.2,323.3,0.10,4.9,7.8,"11:48:28",1
"23/12/29","12:00",0.0,10.6,64.2,1019.9,329.4,3.6,7.0,337.5,0.10,4.2,7.7,"11:52:34",1
"23/12/29","12:10",0.0,11.0,62.1,1019.4,330.3,3.0,4.9,323.7,0.16,4.1,7.7,"12:01:52",1
"23/12/29","12:20",0.0,11.1,59.8,1019.7,338.3,2.6,5.2,335.6,0.16,3.6,7.7,"12:16:38",1
"23/12/29","12:30",0.0,11.5,59.7,1019.4,328.2,2.6,4.3,324.1,0.22,4.0,7.7,"12:20:50",1
"23/12/29","12:40",0.0,11.7,57.7,1019.2,322.5,2.0,3.6,304.8,0.25,3.7,7.8,"12:39:46",1
"23/12/29","12:50",0.0,11.5,57.9,1018.7,313.9,2.6,4.7,337.9,0.22,3.5,7.9,"12:49:26",1
"23/12/29","13:00",0.0,11.7,57.5,1018.5,315.7,2.3,3.3,316.6,0.24,3.6,8.1,"12:52:06",1
"23/12/29","13:10",0.0,11.9,58.2,1019.0,316.8,2.5,4.3,323.9,0.25,4.0,8.2,"13:05:28",1
"23/12/29","13:20",0.0,11.9,59.4,1018.2,323.5,1.6,2.6,333.5,0.17,4.3,8.2,"13:10:56",1
"23/12/29","13:30",0.0,11.8,57.8,1018.2,325.7,1.1,2.4,346.5,0.14,3.8,8.2,"13:29:30",1
"23/12/29","13:40",0.0,11.7,58.7,1018.2,334.1,1.6,3.6,331.1,0.12,3.9,8.2,"13:30:22",1
"23/12/29","13:50",0.0,11.5,58.4,1018.2,338.2,1.8,4.0,326.0,0.12,3.7,8.4,"13:48:56",1
"23/12/29","14:00",0.0,11.7,58.5,1018.2,328.5,2.0,4.2,340.5,0.16,3.9,8.4,"13:50:26",1
"23/12/29","14:10",0.0,11.8,56.6,1018.2,332.5,1.6,3.1,339.6,0.14,3.5,8.3,"14:04:24",1
"23/12/29","14:20",0.0,11.6,57.1,1018.2,342.8,1.7,4.1,306.3,0.11,3.4,8.6,"14:12:48",1
"23/12/29","14:30",0.0,11.6,57.7,1018.5,331.4,1.7,3.7,297.2,0.10,3.6,8.4,"14:24:04",1
"23/12/29","14:40",0.0,11.6,57.3,1018.5,352.9,1.2,2.5,28.2,0.08,3.5,8.5,"14:31:32",1
"23/12/29","14:50",0.0,11.5,57.6,1018.2,338.6,1.5,3.4,324.8,0.08,3.5,8.7,"14:46:04",1
"23/12/29","15:00",0.0,11.6,57.8,1018.2,327.5,1.5,2.6,342.8,0.09,3.6,8.7,"14:53:32",1
"23/12/29","15:10",0.0,11.5,57.8,1018.7,324.9,2.2,3.5,343.5,0.09,3.5,8.6,"15:04:10",1
"23/12/29","15:20",0.0,11.7,56.8,1018.2,341.4,1.5,2.9,338.3,0.10,3.5,8.5,"15:12:32",1
"23/12/29","15:30",0.0,11.6,57.1,1018.2,346.8,1.3,2.7,334.6,0.08,3.4,8.7,"15:26:08",1
"23/12/29","15:40",0.0,11.9,56.9,1018.7,344.0,1.5,3.5,332.6,0.13,3.7,8.7,"15:30:40",1
"23/12/29","15:50",0.0,12.0,55.1,1018.7,330.0,1.3,2.7,32.2,0.09,3.3,8.6,"15:41:54",1
"23/12/29","16:00",0.0,11.6,55.8,1018.7,338.0,1.1,2.5,3.5,0.05,3.1,8.7,"15:57:18",1
"23/12/29","16:10",0.0,11.2,56.6,1018.5,343.1,1.6,2.5,352.3,0.04,2.9,8.9,"16:00:12",1
"23/12/29","16:20",0.0,11.2,56.9,1018.5,346.5,1.2,2.5,348.2,0.03,3.0,8.8,"16:17:14",1
"23/12/29","16:30",0.0,11.0,57.3,1018.0,337.0,1.7,3.1,333.8,0.02,2.9,8.8,"16:23:12",1
"23/12/29","16:40",0.0,10.8,57.4,1018.5,347.7,1.6,3.3,336.0,0.01,2.8,8.7,"16:37:04",1
"23/12/29","16:50",0.0,10.5,58.2,1018.5,351.8,1.8,3.6,346.0,0.00,2.7,8.7,"16:43:36",1
"23/12/29","17:00",0.0,10.1,59.4,1018.5,4.3,1.1,2.0,2.2,0.00,2.6,8.9,"16:50:24",1
"23/12/29","17:10",0.0,9.5,63.3,1018.0,352.0,1.6,3.1,340.6,0.00,2.9,8.8,"17:09:04",1
"23/12/29","17:20",0.0,8.2,67.6,1018.0,332.2,1.8,2.7,311.7,0.00,2.6,8.7,"17:19:52",1
"23/12/29","17:30",0.0,7.1,70.3,1018.0,316.3,2.2,2.8,323.4,0.00,2.1,8.7,"17:22:08",1
"23/12/29","17:40",0.0,6.4,71.8,1018.2,300.9,1.2,2.0,315.2,0.00,1.7,8.7,"17:35:12",1
"23/12/29","17:50",0.0,6.3,73.2,1018.5,308.8,1.3,2.5,322.9,0.00,1.9,8.6,"17:49:44",1
"23/12/29","18:00",0.0,6.4,74.2,1018.2,282.2,1.3,2.4,260.1,0.00,2.2,8.6,"17:58:16",1
"23/12/29","18:10",0.0,6.4,74.9,1018.0,288.0,1.8,2.2,308.1,0.00,2.3,8.6,"18:02:40",1
"23/12/29","18:20",0.0,6.2,75.8,1018.2,291.6,1.8,2.5,307.3,0.00,2.3,8.7,"18:16:56",1
"23/12/29","18:30",0.0,6.4,76.5,1018.0,305.6,2.6,3.9,322.9,0.00,2.6,8.5,"18:24:54",1
"23/12/29","18:40",0.0,6.4,76.8,1018.0,289.5,2.3,3.2,299.9,0.00,2.7,8.6,"18:30:08",1
"23/12/29","18:50",0.0,6.4,77.1,1018.2,287.1,2.7,4.4,315.9,0.00,2.7,8.4,"18:43:06",1
"23/12/29","19:00",0.0,6.4,77.2,1018.0,285.7,2.7,3.3,297.7,0.00,2.7,8.4,"18:50:24",1
"23/12/29","19:10",0.0,6.3,77.3,1018.0,296.2,2.8,3.6,312.0,0.00,2.7,8.3,"19:00:56",1
"23/12/29","19:20",0.0,6.2,77.4,1018.0,283.4,2.5,3.2,274.5,0.00,2.6,8.3,"19:19:56",1
"23/12/29","19:30",0.0,6.1,77.6,1018.7,283.6,2.5,3.3,261.7,0.00,2.5,8.3,"19:24:36",1
"23/12/29","19:40",0.0,5.9,78.0,1018.5,282.9,2.6,3.9,261.6,0.00,2.4,8.3,"19:30:10",1
"23/12/29","19:50",0.0,5.8,78.4,1018.5,291.0,2.2,2.9,299.4,0.00,2.4,8.3,"19:41:52",1
"23/12/29","20:00",0.0,5.6,78.7,1018.5,307.0,1.8,2.5,313.7,0.00,2.2,8.1,"19:56:18",1
"23/12/29","20:10",0.0,5.3,79.0,1018.5,302.0,1.5,1.8,315.5,0.00,2.0,8.3,"20:00:40",1
"23/12/29","20:20",0.0,5.2,79.8,1018.2,307.5,2.1,4.2,318.2,0.00,2.0,8.1,"20:19:58",1
"23/12/29","20:30",0.0,5.3,80.3,1018.2,327.4,3.2,4.7,313.0,0.00,2.2,8.3,"20:22:28",1
"23/12/29","20:40",0.0,4.9,81.1,1018.5,328.7,2.5,3.2,323.5,0.00,2.0,8.1,"20:38:58",1
"23/12/29","20:50",0.0,5.0,82.1,1018.2,322.9,3.1,4.3,320.9,0.00,2.2,8.1,"20:48:10",1
"23/12/29","21:00",0.0,4.9,82.7,1018.2,311.6,2.8,3.9,329.5,0.00,2.2,7.9,"20:57:52",1
"23/12/29","21:10",0.0,5.0,83.4,1018.2,321.9,3.4,5.1,318.6,0.00,2.5,8.1,"21:09:30",1
"23/12/29","21:20",0.0,5.0,83.6,1017.8,315.2,3.4,5.2,316.1,0.00,2.5,7.9,"21:18:40",1
"23/12/29","21:30",0.0,5.1,83.4,1018.2,309.0,3.1,4.3,324.9,0.00,2.6,7.8,"21:24:44",1
"23/12/29","21:40",0.0,4.7,83.4,1018.2,294.7,1.1,2.5,318.4,0.00,2.2,7.7,"21:30:18",1
"23/12/29","21:50",0.0,4.4,83.7,1018.0,333.7,1.8,2.5,328.1,0.00,1.9,7.8,"21:49:00",1
"23/12/29","22:00",0.0,4.2,84.5,1018.0,332.2,2.3,3.4,331.9,0.00,1.9,7.6,"21:58:00",1
"23/12/29","22:10",0.0,4.0,85.0,1018.0,302.9,1.7,2.4,310.7,0.00,1.8,7.8,"22:04:22",1
"23/12/29","22:20",0.0,3.7,85.6,1017.8,287.3,0.8,1.7,254.8,0.00,1.6,7.5,"22:11:24",1
"23/12/29","22:30",0.0,3.5,86.1,1017.8,317.1,0.8,1.7,325.4,0.00,1.4,7.6,"22:29:26",1
"23/12/29","22:40",0.0,3.3,86.9,1017.5,301.6,1.6,3.4,318.1,0.00,1.4,7.5,"22:39:30",1
"23/12/29","22:50",0.0,3.5,87.3,1017.8,298.0,2.0,3.6,322.8,0.00,1.6,7.6,"22:44:16",1
"23/12/29","23:00",0.0,3.2,87.8,1017.8,278.1,1.0,1.6,321.3,0.00,1.4,7.5,"22:50:24",1
"23/12/29","23:10",0.0,2.9,88.3,1017.5,139.9,0.6,1.2,136.0,0.00,1.2,7.4,"23:01:04",1
"23/12/29","23:20",0.0,2.8,88.8,1017.5,295.7,1.3,2.1,332.6,0.00,1.2,7.5,"23:12:00",1
"23/12/29","23:30",0.0,2.5,89.1,1017.5,295.4,0.8,1.6,336.0,0.00,0.9,7.4,"23:25:54",1
"23/12/29","23:40",0.0,2.2,89.4,1017.5,273.2,1.0,1.4,312.7,0.00,0.7,7.3,"23:39:58",1
"23/12/29","23:50",0.0,2.0,89.9,1017.1,311.2,1.5,2.2,320.4,0.00,0.6,7.5,"23:47:28",1
"23/12/29","24:00",0.0,1.8,90.3,1017.3,307.8,1.3,1.9,321.8,0.00,0.4,7.5,"23:50:08",1
